STARLINK-11251 [DTC]

Last updated on Tue Oct 01 2024 00:02:04 GMT+0000 (Coordinated Universal Time)

1 60930U 24155G 24274.39252044 .00006560 00000+0 44054-4 0 9990 2 60930 53.1536 51.1465 0001154 87.0026 273.1127 15.76724944 5893
UTC large
Height (km)
Speed (km/s)
/
Latitude / Longitude
Inclination (degrees)
Orbital Period (minutes)
Azimuth
Elevation
Range (km)
Doppler Factor

Next 0 passes for location: London (51.5072 / 0.1276)

Sorry there are no passes over London.